Year,Month,Day,Hour,Minute,Value (Times are PST for temperature in C)
2012,07,07,00,00,15.30
2012,07,07,00,01,15.30
2012,07,07,00,02,15.30
2012,07,07,00,03,15.20
2012,07,07,00,04,15.20
2012,07,07,00,05,15.20
2012,07,07,00,06,15.10
2012,07,07,00,07,15.10
2012,07,07,00,08,15.00
2012,07,07,00,09,15.00
2012,07,07,00,10,15.00
2012,07,07,00,11,15.00
2012,07,07,00,12,15.00
2012,07,07,00,13,15.00
2012,07,07,00,14,15.00
2012,07,07,00,15,15.00
2012,07,07,00,16,15.00
2012,07,07,00,17,15.00
2012,07,07,00,18,15.00
2012,07,07,00,19,15.00
2012,07,07,00,20,15.00
2012,07,07,00,21,15.00
2012,07,07,00,22,15.00
2012,07,07,00,23,15.00
2012,07,07,00,24,15.00
2012,07,07,00,25,15.00
2012,07,07,00,26,15.00
2012,07,07,00,27,15.00
2012,07,07,00,28,15.00
2012,07,07,00,29,15.00
2012,07,07,00,30,15.00
2012,07,07,00,31,15.00
2012,07,07,00,32,15.00
2012,07,07,00,33,15.00
2012,07,07,00,34,15.00
2012,07,07,00,35,15.00
2012,07,07,00,36,15.00
2012,07,07,00,37,14.90
2012,07,07,00,38,14.90
2012,07,07,00,39,14.90
2012,07,07,00,40,14.80
2012,07,07,00,41,14.80
2012,07,07,00,42,14.90
2012,07,07,00,43,14.90
2012,07,07,00,44,14.90
2012,07,07,00,45,14.90
2012,07,07,00,46,14.90
2012,07,07,00,47,14.90
2012,07,07,00,48,14.90
2012,07,07,00,49,14.90
2012,07,07,00,50,14.90
2012,07,07,00,51,14.80
2012,07,07,00,52,14.80
2012,07,07,00,53,14.80
2012,07,07,00,54,14.80
2012,07,07,00,55,14.80
2012,07,07,00,56,14.80
2012,07,07,00,57,14.80
2012,07,07,00,58,14.80
2012,07,07,00,59,14.80
2012,07,07,01,00,14.80
2012,07,07,01,01,14.80
2012,07,07,01,02,14.70
2012,07,07,01,03,14.70
2012,07,07,01,04,14.70
2012,07,07,01,05,14.70
2012,07,07,01,06,14.70
2012,07,07,01,07,14.70
2012,07,07,01,08,14.70
2012,07,07,01,09,14.70
2012,07,07,01,10,14.70
2012,07,07,01,11,14.70
2012,07,07,01,12,14.60
2012,07,07,01,13,14.60
2012,07,07,01,14,14.60
2012,07,07,01,15,14.60
2012,07,07,01,16,14.60
2012,07,07,01,17,14.60
2012,07,07,01,18,14.60
2012,07,07,01,19,14.50
2012,07,07,01,20,14.50
2012,07,07,01,21,14.50
2012,07,07,01,22,14.50
2012,07,07,01,23,14.50
2012,07,07,01,24,14.50
2012,07,07,01,25,14.50
2012,07,07,01,26,14.50
2012,07,07,01,27,14.40
2012,07,07,01,28,14.40
2012,07,07,01,29,14.40
2012,07,07,01,30,14.40
2012,07,07,01,31,14.40
2012,07,07,01,32,14.40
2012,07,07,01,33,14.40
2012,07,07,01,34,14.40
2012,07,07,01,35,14.40
2012,07,07,01,36,14.30
2012,07,07,01,37,14.30
2012,07,07,01,38,14.30
2012,07,07,01,39,14.30
2012,07,07,01,40,14.30
2012,07,07,01,41,14.30
2012,07,07,01,42,14.30
2012,07,07,01,43,14.30
2012,07,07,01,44,14.40
2012,07,07,01,45,14.40
2012,07,07,01,46,14.40
2012,07,07,01,47,14.40
2012,07,07,01,48,14.40
2012,07,07,01,49,14.40
2012,07,07,01,50,14.40
2012,07,07,01,51,14.30
2012,07,07,01,52,14.30
2012,07,07,01,53,14.30
2012,07,07,01,54,14.30
2012,07,07,01,55,14.30
2012,07,07,01,56,14.30
2012,07,07,01,57,14.30
2012,07,07,01,58,14.20
2012,07,07,01,59,14.20
2012,07,07,02,00,14.20
2012,07,07,02,01,14.20
2012,07,07,02,02,14.10
2012,07,07,02,03,14.10
2012,07,07,02,04,14.10
2012,07,07,02,05,14.00
2012,07,07,02,06,14.00
2012,07,07,02,07,13.90
2012,07,07,02,08,13.90
2012,07,07,02,09,13.90
2012,07,07,02,10,13.90
2012,07,07,02,11,13.80
2012,07,07,02,12,13.80
2012,07,07,02,13,13.80
2012,07,07,02,14,13.70
2012,07,07,02,15,13.70
2012,07,07,02,16,13.70
2012,07,07,02,17,13.70
2012,07,07,02,18,13.70
2012,07,07,02,19,13.70
2012,07,07,02,20,13.70
2012,07,07,02,21,13.70
2012,07,07,02,22,13.70
2012,07,07,02,23,13.60
2012,07,07,02,24,13.60
2012,07,07,02,25,13.60
2012,07,07,02,26,13.60
2012,07,07,02,27,13.60
2012,07,07,02,28,13.60
2012,07,07,02,29,13.60
2012,07,07,02,30,13.60
2012,07,07,02,31,13.60
2012,07,07,02,32,13.60
2012,07,07,02,33,13.60
2012,07,07,02,34,13.60
2012,07,07,02,35,13.60
2012,07,07,02,36,13.60
2012,07,07,02,37,13.60
2012,07,07,02,38,13.70
2012,07,07,02,39,13.70
2012,07,07,02,40,13.70
2012,07,07,02,41,13.80
2012,07,07,02,42,13.80
2012,07,07,02,43,13.80
2012,07,07,02,44,13.80
2012,07,07,02,45,13.80
2012,07,07,02,46,13.80
2012,07,07,02,47,13.80
2012,07,07,02,48,13.80
2012,07,07,02,49,13.70
2012,07,07,02,50,13.70
2012,07,07,02,51,13.70
2012,07,07,02,52,13.70
2012,07,07,02,53,13.60
2012,07,07,02,54,13.60
2012,07,07,02,55,13.50
2012,07,07,02,56,13.50
2012,07,07,02,57,13.40
2012,07,07,02,58,13.40
2012,07,07,02,59,13.30
2012,07,07,03,00,13.30
2012,07,07,03,01,13.30
2012,07,07,03,02,13.20
2012,07,07,03,03,13.20
2012,07,07,03,04,13.20
2012,07,07,03,05,13.20
2012,07,07,03,06,13.10
2012,07,07,03,07,13.10
2012,07,07,03,08,13.10
2012,07,07,03,09,13.10
2012,07,07,03,10,13.00
2012,07,07,03,11,13.00
2012,07,07,03,12,13.00
2012,07,07,03,13,12.90
2012,07,07,03,14,12.90
2012,07,07,03,15,12.90
2012,07,07,03,16,12.90
2012,07,07,03,17,12.90
2012,07,07,03,18,12.90
2012,07,07,03,19,12.90
2012,07,07,03,20,12.90
2012,07,07,03,21,12.90
2012,07,07,03,22,12.90
2012,07,07,03,23,12.90
2012,07,07,03,24,12.90
2012,07,07,03,25,12.90
2012,07,07,03,26,12.90
2012,07,07,03,27,12.90
2012,07,07,03,28,12.90
2012,07,07,03,29,12.90
2012,07,07,03,30,12.90
2012,07,07,03,31,12.90
2012,07,07,03,32,12.90
2012,07,07,03,33,12.90
2012,07,07,03,34,12.90
2012,07,07,03,35,12.90
2012,07,07,03,36,13.00
2012,07,07,03,37,13.00
2012,07,07,03,38,13.00
2012,07,07,03,39,13.00
2012,07,07,03,40,13.10
2012,07,07,03,41,13.10
2012,07,07,03,42,13.10
2012,07,07,03,43,13.10
2012,07,07,03,44,13.20
2012,07,07,03,45,13.20
2012,07,07,03,46,13.20
2012,07,07,03,47,13.20
2012,07,07,03,48,13.20
2012,07,07,03,49,13.20
2012,07,07,03,50,13.20
2012,07,07,03,51,13.20
2012,07,07,03,52,13.20
2012,07,07,03,53,13.20
2012,07,07,03,54,13.20
2012,07,07,03,55,13.20
2012,07,07,03,56,13.10
2012,07,07,03,57,13.10
2012,07,07,03,58,13.10
2012,07,07,03,59,13.10
2012,07,07,04,00,13.10
2012,07,07,04,01,13.10
2012,07,07,04,02,13.10
2012,07,07,04,03,13.20
2012,07,07,04,04,13.20
2012,07,07,04,05,13.20
2012,07,07,04,06,13.20
2012,07,07,04,07,13.20
2012,07,07,04,08,13.20
2012,07,07,04,09,13.20
2012,07,07,04,10,13.20
2012,07,07,04,11,13.20
2012,07,07,04,12,13.20
2012,07,07,04,13,13.10
2012,07,07,04,14,13.10
2012,07,07,04,15,13.10
2012,07,07,04,16,13.10
2012,07,07,04,17,13.10
2012,07,07,04,18,13.10
2012,07,07,04,19,13.10
2012,07,07,04,20,13.10
2012,07,07,04,21,13.10
2012,07,07,04,22,13.10
2012,07,07,04,23,13.10
2012,07,07,04,24,13.10
2012,07,07,04,25,13.10
2012,07,07,04,26,13.10
2012,07,07,04,27,13.10
2012,07,07,04,28,13.10
2012,07,07,04,29,13.10
2012,07,07,04,30,13.10
2012,07,07,04,31,13.10
2012,07,07,04,32,13.20
2012,07,07,04,33,13.20
2012,07,07,04,34,13.20
2012,07,07,04,35,13.10
2012,07,07,04,36,13.10
2012,07,07,04,37,13.10
2012,07,07,04,38,13.10
2012,07,07,04,39,13.00
2012,07,07,04,40,13.00
2012,07,07,04,41,12.90
2012,07,07,04,42,12.90
2012,07,07,04,43,12.90
2012,07,07,04,44,12.90
2012,07,07,04,45,12.80
2012,07,07,04,46,12.80
2012,07,07,04,47,12.80
2012,07,07,04,48,12.80
2012,07,07,04,49,12.80
2012,07,07,04,50,12.80
2012,07,07,04,51,12.70
2012,07,07,04,52,12.70
2012,07,07,04,53,12.70
2012,07,07,04,54,12.70
2012,07,07,04,55,12.60
2012,07,07,04,56,12.60
2012,07,07,04,57,12.60
2012,07,07,04,58,12.60
2012,07,07,04,59,12.60
2012,07,07,05,00,12.60
2012,07,07,05,01,12.70
2012,07,07,05,02,12.70
2012,07,07,05,03,12.70
2012,07,07,05,04,12.70
2012,07,07,05,05,12.70
2012,07,07,05,06,12.80
2012,07,07,05,07,12.80
2012,07,07,05,08,12.80
2012,07,07,05,09,12.80
2012,07,07,05,10,12.80
2012,07,07,05,11,12.80
2012,07,07,05,12,12.80
2012,07,07,05,13,12.80
2012,07,07,05,14,12.80
2012,07,07,05,15,12.80
2012,07,07,05,16,12.70
2012,07,07,05,17,12.70
2012,07,07,05,18,12.70
2012,07,07,05,19,12.70
2012,07,07,05,20,12.70
2012,07,07,05,21,12.60
2012,07,07,05,22,12.60
2012,07,07,05,23,12.60
2012,07,07,05,24,12.60
2012,07,07,05,25,12.60
2012,07,07,05,26,12.60
2012,07,07,05,27,12.60
2012,07,07,05,28,12.60
2012,07,07,05,29,12.60
2012,07,07,05,30,12.60
2012,07,07,05,31,12.50
2012,07,07,05,32,12.50
2012,07,07,05,33,12.50
2012,07,07,05,34,12.40
2012,07,07,05,35,12.40
2012,07,07,05,36,12.30
2012,07,07,05,37,12.30
2012,07,07,05,38,12.30
2012,07,07,05,39,12.20
2012,07,07,05,40,12.20
2012,07,07,05,41,12.10
2012,07,07,05,42,12.10
2012,07,07,05,43,12.10
2012,07,07,05,44,12.00
2012,07,07,05,45,12.00
2012,07,07,05,46,11.90
2012,07,07,05,47,11.90
2012,07,07,05,48,11.90
2012,07,07,05,49,11.90
2012,07,07,05,50,11.90
2012,07,07,05,51,11.90
2012,07,07,05,52,11.90
2012,07,07,05,53,11.90
2012,07,07,05,54,11.90
2012,07,07,05,55,11.90
2012,07,07,05,56,11.90
2012,07,07,05,57,11.90
2012,07,07,05,58,11.90
2012,07,07,05,59,11.90
2012,07,07,06,00,11.90
2012,07,07,06,01,11.90
2012,07,07,06,02,11.90
2012,07,07,06,03,11.90
2012,07,07,06,04,11.90
2012,07,07,06,05,12.00
2012,07,07,06,06,12.10
2012,07,07,06,07,12.10
2012,07,07,06,08,12.10
2012,07,07,06,09,12.10
2012,07,07,06,10,12.20
2012,07,07,06,11,12.20
2012,07,07,06,12,12.20
2012,07,07,06,13,12.20
2012,07,07,06,14,12.20
2012,07,07,06,15,12.20
2012,07,07,06,16,12.20
2012,07,07,06,17,12.20
2012,07,07,06,18,12.20
2012,07,07,06,19,12.20
2012,07,07,06,20,12.20
2012,07,07,06,21,12.20
2012,07,07,06,22,12.20
2012,07,07,06,23,12.20
2012,07,07,06,24,12.30
2012,07,07,06,25,12.30
2012,07,07,06,26,12.30
2012,07,07,06,27,12.30
2012,07,07,06,28,12.30
2012,07,07,06,29,12.30
2012,07,07,06,30,12.30
2012,07,07,06,31,12.30
2012,07,07,06,32,12.40
2012,07,07,06,33,12.40
2012,07,07,06,34,12.40
2012,07,07,06,35,12.40
2012,07,07,06,36,12.50
2012,07,07,06,37,12.50
2012,07,07,06,38,12.60
2012,07,07,06,39,12.60
2012,07,07,06,40,12.60
2012,07,07,06,41,12.70
2012,07,07,06,42,12.70
2012,07,07,06,43,12.80
2012,07,07,06,44,12.80
2012,07,07,06,45,12.90
2012,07,07,06,46,12.90
2012,07,07,06,47,13.00
2012,07,07,06,48,13.00
2012,07,07,06,49,13.10
2012,07,07,06,50,13.10
2012,07,07,06,51,13.20
2012,07,07,06,52,13.20
2012,07,07,06,53,13.20
2012,07,07,06,54,13.20
2012,07,07,06,55,13.30
2012,07,07,06,56,13.30
2012,07,07,06,57,13.40
2012,07,07,06,58,13.40
2012,07,07,06,59,13.50
2012,07,07,07,00,13.60
2012,07,07,07,01,13.70
2012,07,07,07,02,13.80
2012,07,07,07,03,13.90
2012,07,07,07,04,13.90
2012,07,07,07,05,14.00
2012,07,07,07,06,14.10
2012,07,07,07,07,14.10
2012,07,07,07,08,14.20
2012,07,07,07,09,14.20
2012,07,07,07,10,14.30
2012,07,07,07,11,14.40
2012,07,07,07,12,14.50
2012,07,07,07,13,14.60
2012,07,07,07,14,14.70
2012,07,07,07,15,14.80
2012,07,07,07,16,14.90
2012,07,07,07,17,15.00
2012,07,07,07,18,15.00
2012,07,07,07,19,15.00
2012,07,07,07,20,15.10
2012,07,07,07,21,15.20
2012,07,07,07,22,15.30
2012,07,07,07,23,15.40
2012,07,07,07,24,15.40
2012,07,07,07,25,15.50
2012,07,07,07,26,15.50
2012,07,07,07,27,15.60
2012,07,07,07,28,15.70
2012,07,07,07,29,15.70
2012,07,07,07,30,15.80
2012,07,07,07,31,15.90
2012,07,07,07,32,16.00
2012,07,07,07,33,16.00
2012,07,07,07,34,16.10
2012,07,07,07,35,16.20
2012,07,07,07,36,16.30
2012,07,07,07,37,16.30
2012,07,07,07,38,16.40
2012,07,07,07,39,16.50
2012,07,07,07,40,16.50
2012,07,07,07,41,16.60
2012,07,07,07,42,16.60
2012,07,07,07,43,16.70
2012,07,07,07,44,16.70
2012,07,07,07,45,16.80
2012,07,07,07,46,16.80
2012,07,07,07,47,16.80
2012,07,07,07,48,16.90
2012,07,07,07,49,16.90
2012,07,07,07,50,16.90
2012,07,07,07,51,16.90
2012,07,07,07,52,16.90
2012,07,07,07,53,16.90
2012,07,07,07,54,16.90
2012,07,07,07,55,16.90
2012,07,07,07,56,16.90
2012,07,07,07,57,16.90
2012,07,07,07,58,17.00
2012,07,07,07,59,17.00
2012,07,07,08,00,17.10
2012,07,07,08,01,17.10
2012,07,07,08,02,17.20
2012,07,07,08,03,17.20
2012,07,07,08,04,17.20
2012,07,07,08,05,17.30
2012,07,07,08,06,17.30
2012,07,07,08,07,17.30
2012,07,07,08,08,17.40
2012,07,07,08,09,17.40
2012,07,07,08,10,17.50
2012,07,07,08,11,17.50
2012,07,07,08,12,17.60
2012,07,07,08,13,17.50
2012,07,07,08,14,17.40
2012,07,07,08,15,17.40
2012,07,07,08,16,17.30
2012,07,07,08,17,17.30
2012,07,07,08,18,17.30
2012,07,07,08,19,17.30
2012,07,07,08,20,17.30
2012,07,07,08,21,17.30
2012,07,07,08,22,17.40
2012,07,07,08,23,17.40
2012,07,07,08,24,17.50
2012,07,07,08,25,17.60
2012,07,07,08,26,17.60
2012,07,07,08,27,17.70
2012,07,07,08,28,17.70
2012,07,07,08,29,17.70
2012,07,07,08,30,17.70
2012,07,07,08,31,17.80
2012,07,07,08,32,17.80
2012,07,07,08,33,17.80
2012,07,07,08,34,17.80
2012,07,07,08,35,17.70
2012,07,07,08,36,17.70
2012,07,07,08,37,17.70
2012,07,07,08,38,17.70
2012,07,07,08,39,17.70
2012,07,07,08,40,17.70
2012,07,07,08,41,17.70
2012,07,07,08,42,17.70
2012,07,07,08,43,17.70
2012,07,07,08,44,17.70
2012,07,07,08,45,17.70
2012,07,07,08,46,17.70
2012,07,07,08,47,17.80
2012,07,07,08,48,17.80
2012,07,07,08,49,17.80
2012,07,07,08,50,17.80
2012,07,07,08,51,17.70
2012,07,07,08,52,17.80
2012,07,07,08,53,17.80
2012,07,07,08,54,17.80
2012,07,07,08,55,17.80
2012,07,07,08,56,17.80
2012,07,07,08,57,17.80
2012,07,07,08,58,17.80
2012,07,07,08,59,17.80
2012,07,07,09,00,17.90
2012,07,07,09,01,17.90
2012,07,07,09,02,17.90
2012,07,07,09,03,18.00
2012,07,07,09,04,18.00
2012,07,07,09,05,18.10
2012,07,07,09,06,18.10
2012,07,07,09,07,18.10
2012,07,07,09,08,18.20
2012,07,07,09,09,18.20
2012,07,07,09,10,18.30
2012,07,07,09,11,18.30
2012,07,07,09,12,18.40
2012,07,07,09,13,18.40
2012,07,07,09,14,18.40
2012,07,07,09,15,18.40
2012,07,07,09,16,18.40
2012,07,07,09,17,18.40
2012,07,07,09,18,18.40
2012,07,07,09,19,18.40
2012,07,07,09,20,18.40
2012,07,07,09,21,18.40
2012,07,07,09,22,18.40
2012,07,07,09,23,18.50
2012,07,07,09,24,18.50
2012,07,07,09,25,18.60
2012,07,07,09,26,18.70
2012,07,07,09,27,18.70
2012,07,07,09,28,18.60
2012,07,07,09,29,18.60
2012,07,07,09,30,18.60
2012,07,07,09,31,18.60
2012,07,07,09,32,18.60
2012,07,07,09,33,18.50
2012,07,07,09,34,18.40
2012,07,07,09,35,18.30
2012,07,07,09,36,18.30
2012,07,07,09,37,18.30
2012,07,07,09,38,18.30
2012,07,07,09,39,18.30
2012,07,07,09,40,18.30
2012,07,07,09,41,18.30
2012,07,07,09,42,18.30
2012,07,07,09,43,18.30
2012,07,07,09,44,18.30
2012,07,07,09,45,18.30
2012,07,07,09,46,18.30
2012,07,07,09,47,18.30
2012,07,07,09,48,18.30
2012,07,07,09,49,18.30
2012,07,07,09,50,18.30
2012,07,07,09,51,18.30
2012,07,07,09,52,18.30
2012,07,07,09,53,18.30
2012,07,07,09,54,18.30
2012,07,07,09,55,18.30
2012,07,07,09,56,18.20
2012,07,07,09,57,18.20
2012,07,07,09,58,18.20
2012,07,07,09,59,18.20
2012,07,07,10,00,18.20
2012,07,07,10,01,18.30
2012,07,07,10,02,18.30
2012,07,07,10,03,18.30
2012,07,07,10,04,18.40
2012,07,07,10,05,18.30
2012,07,07,10,06,18.30
2012,07,07,10,07,18.20
2012,07,07,10,08,18.20
2012,07,07,10,09,18.20
2012,07,07,10,10,18.20
2012,07,07,10,11,18.20
2012,07,07,10,12,18.20
2012,07,07,10,13,18.20
2012,07,07,10,14,18.20
2012,07,07,10,15,18.10
2012,07,07,10,16,18.00
2012,07,07,10,17,18.00
2012,07,07,10,18,18.00
2012,07,07,10,19,18.00
2012,07,07,10,20,18.10
2012,07,07,10,21,18.20
2012,07,07,10,22,18.20
2012,07,07,10,23,18.30
2012,07,07,10,24,18.30
2012,07,07,10,25,18.30
2012,07,07,10,26,18.30
2012,07,07,10,27,18.30
2012,07,07,10,28,18.30
2012,07,07,10,29,18.30
2012,07,07,10,30,18.40
2012,07,07,10,31,18.40
2012,07,07,10,32,18.40
2012,07,07,10,33,18.40
2012,07,07,10,34,18.50
2012,07,07,10,35,18.50
2012,07,07,10,36,18.60
2012,07,07,10,37,18.60
2012,07,07,10,38,18.70
2012,07,07,10,39,18.70
2012,07,07,10,40,18.70
2012,07,07,10,41,18.60
2012,07,07,10,42,18.60
2012,07,07,10,43,18.60
2012,07,07,10,44,18.60
2012,07,07,10,45,18.50
2012,07,07,10,46,18.40
2012,07,07,10,47,18.40
2012,07,07,10,48,18.40
2012,07,07,10,49,18.30
2012,07,07,10,50,18.30
2012,07,07,10,51,18.40
2012,07,07,10,52,18.50
2012,07,07,10,53,18.60
2012,07,07,10,54,18.70
2012,07,07,10,55,18.70
2012,07,07,10,56,18.70
2012,07,07,10,57,18.70
2012,07,07,10,58,18.80
2012,07,07,10,59,18.80
2012,07,07,11,00,18.90
2012,07,07,11,01,18.90
2012,07,07,11,02,18.90
2012,07,07,11,03,18.90
2012,07,07,11,04,18.90
2012,07,07,11,05,18.90
2012,07,07,11,06,18.80
2012,07,07,11,07,18.80
2012,07,07,11,08,18.70
2012,07,07,11,09,18.70
2012,07,07,11,10,18.60
2012,07,07,11,11,18.60
2012,07,07,11,12,18.60
2012,07,07,11,13,18.60
2012,07,07,11,14,18.70
2012,07,07,11,15,18.70
2012,07,07,11,16,18.80
2012,07,07,11,17,18.80
2012,07,07,11,18,18.80
2012,07,07,11,19,18.90
2012,07,07,11,20,19.00
2012,07,07,11,21,19.10
2012,07,07,11,22,19.20
2012,07,07,11,23,19.30
2012,07,07,11,24,19.30
2012,07,07,11,25,19.40
2012,07,07,11,26,19.50
2012,07,07,11,27,19.50
2012,07,07,11,28,19.50
2012,07,07,11,29,19.40
2012,07,07,11,30,19.30
2012,07,07,11,31,19.20
2012,07,07,11,32,19.10
2012,07,07,11,33,19.10
2012,07,07,11,34,19.10
2012,07,07,11,35,19.10
2012,07,07,11,36,19.00
2012,07,07,11,37,19.00
2012,07,07,11,38,18.90
2012,07,07,11,39,18.90
2012,07,07,11,40,18.90
2012,07,07,11,41,18.90
2012,07,07,11,42,19.00
2012,07,07,11,43,19.00
2012,07,07,11,44,19.10
2012,07,07,11,45,19.10
2012,07,07,11,46,19.10
2012,07,07,11,47,19.20
2012,07,07,11,48,19.30
2012,07,07,11,49,19.30
2012,07,07,11,50,19.40
2012,07,07,11,51,19.40
2012,07,07,11,52,19.40
2012,07,07,11,53,19.40
2012,07,07,11,54,19.50
2012,07,07,11,55,19.60
2012,07,07,11,56,19.60
2012,07,07,11,57,19.70
2012,07,07,11,58,19.70
2012,07,07,11,59,19.70
2012,07,07,12,00,19.70
2012,07,07,12,01,19.70
2012,07,07,12,02,19.70
2012,07,07,12,03,19.70
2012,07,07,12,04,19.70
2012,07,07,12,05,19.70
2012,07,07,12,06,19.80
2012,07,07,12,07,19.90
2012,07,07,12,08,19.90
2012,07,07,12,09,20.00
2012,07,07,12,10,20.00
2012,07,07,12,11,20.20
2012,07,07,12,12,20.30
2012,07,07,12,13,20.40
2012,07,07,12,14,20.40
2012,07,07,12,15,20.40
2012,07,07,12,16,20.40
2012,07,07,12,17,20.40
2012,07,07,12,18,20.30
2012,07,07,12,19,20.30
2012,07,07,12,20,20.30
2012,07,07,12,21,20.30
2012,07,07,12,22,20.30
2012,07,07,12,23,20.30
2012,07,07,12,24,20.30
2012,07,07,12,25,20.30
2012,07,07,12,26,20.30
2012,07,07,12,27,20.40
2012,07,07,12,28,20.40
2012,07,07,12,29,20.40
2012,07,07,12,30,20.50
2012,07,07,12,31,20.50
2012,07,07,12,32,20.60
2012,07,07,12,33,20.70
2012,07,07,12,34,20.70
2012,07,07,12,35,20.70
2012,07,07,12,36,20.70
2012,07,07,12,37,20.70
2012,07,07,12,38,20.70
2012,07,07,12,39,20.80
2012,07,07,12,40,20.90
2012,07,07,12,41,20.90
2012,07,07,12,42,20.90
2012,07,07,12,43,20.80
2012,07,07,12,44,20.80
2012,07,07,12,45,20.70
2012,07,07,12,46,20.70
2012,07,07,12,47,20.60
2012,07,07,12,48,20.60
2012,07,07,12,49,20.60
2012,07,07,12,50,20.60
2012,07,07,12,51,20.60
2012,07,07,12,52,20.60
2012,07,07,12,53,20.70
2012,07,07,12,54,20.80
2012,07,07,12,55,20.90
2012,07,07,12,56,20.90
2012,07,07,12,57,20.80
2012,07,07,12,58,20.70
2012,07,07,12,59,20.70
2012,07,07,13,00,20.60
2012,07,07,13,01,20.60
2012,07,07,13,02,20.60
2012,07,07,13,03,20.40
2012,07,07,13,04,20.40
2012,07,07,13,05,20.40
2012,07,07,13,06,20.40
2012,07,07,13,07,20.50
2012,07,07,13,08,20.50
2012,07,07,13,09,20.50
2012,07,07,13,10,20.60
2012,07,07,13,11,20.70
2012,07,07,13,12,20.80
2012,07,07,13,13,20.90
2012,07,07,13,14,21.00
2012,07,07,13,15,21.10
2012,07,07,13,16,21.10
2012,07,07,13,17,21.10
2012,07,07,13,18,21.10
2012,07,07,13,19,21.10
2012,07,07,13,20,21.10
2012,07,07,13,21,21.20
2012,07,07,13,22,21.20
2012,07,07,13,23,21.20
2012,07,07,13,24,21.20
2012,07,07,13,25,21.10
2012,07,07,13,26,21.10
2012,07,07,13,27,21.00
2012,07,07,13,28,20.90
2012,07,07,13,29,20.90
2012,07,07,13,30,20.80
2012,07,07,13,31,20.70
2012,07,07,13,32,20.70
2012,07,07,13,33,20.70
2012,07,07,13,34,20.70
2012,07,07,13,35,20.70
2012,07,07,13,36,20.70
2012,07,07,13,37,20.80
2012,07,07,13,38,20.90
2012,07,07,13,39,21.00
2012,07,07,13,40,21.10
2012,07,07,13,41,21.20
2012,07,07,13,42,21.30
2012,07,07,13,43,21.30
2012,07,07,13,44,21.40
2012,07,07,13,45,21.40
2012,07,07,13,46,21.40
2012,07,07,13,47,21.40
2012,07,07,13,48,21.30
2012,07,07,13,49,21.20
2012,07,07,13,50,21.10
2012,07,07,13,51,21.10
2012,07,07,13,52,21.10
2012,07,07,13,53,21.20
2012,07,07,13,54,21.30
2012,07,07,13,55,21.50
2012,07,07,13,56,21.60
2012,07,07,13,57,21.70
2012,07,07,13,58,21.80
2012,07,07,13,59,21.80
2012,07,07,14,00,21.70
2012,07,07,14,01,21.60
2012,07,07,14,02,21.60
2012,07,07,14,03,21.60
2012,07,07,14,04,21.60
2012,07,07,14,05,21.60
2012,07,07,14,06,21.60
2012,07,07,14,07,21.60
2012,07,07,14,08,21.70
2012,07,07,14,09,21.80
2012,07,07,14,10,21.80
2012,07,07,14,11,21.80
2012,07,07,14,12,21.80
2012,07,07,14,13,21.80
2012,07,07,14,14,21.80
2012,07,07,14,15,21.70
2012,07,07,14,16,21.70
2012,07,07,14,17,21.70
2012,07,07,14,18,21.70
2012,07,07,14,19,21.70
2012,07,07,14,20,21.70
2012,07,07,14,21,21.80
2012,07,07,14,22,21.90
2012,07,07,14,23,22.00
2012,07,07,14,24,22.00
2012,07,07,14,25,22.10
2012,07,07,14,26,22.10
2012,07,07,14,27,22.20
2012,07,07,14,28,22.20
2012,07,07,14,29,22.10
2012,07,07,14,30,22.10
2012,07,07,14,31,22.10
2012,07,07,14,32,22.10
2012,07,07,14,33,22.10
2012,07,07,14,34,22.00
2012,07,07,14,35,21.90
2012,07,07,14,36,21.90
2012,07,07,14,37,22.00
2012,07,07,14,38,22.00
2012,07,07,14,39,22.00
2012,07,07,14,40,21.90
2012,07,07,14,41,21.80
2012,07,07,14,42,21.80
2012,07,07,14,43,21.70
2012,07,07,14,44,21.70
2012,07,07,14,45,21.80
2012,07,07,14,46,21.80
2012,07,07,14,47,21.80
2012,07,07,14,48,21.80
2012,07,07,14,49,21.70
2012,07,07,14,50,21.70
2012,07,07,14,51,21.70
2012,07,07,14,52,21.70
2012,07,07,14,53,21.70
2012,07,07,14,54,21.80
2012,07,07,14,55,21.80
2012,07,07,14,56,21.80
2012,07,07,14,57,21.70
2012,07,07,14,58,21.70
2012,07,07,14,59,21.60
2012,07,07,15,00,21.60
2012,07,07,15,01,21.60
2012,07,07,15,02,21.70
2012,07,07,15,03,21.80
2012,07,07,15,04,21.90
2012,07,07,15,05,22.00
2012,07,07,15,06,22.10
2012,07,07,15,07,22.20
2012,07,07,15,08,22.40
2012,07,07,15,09,22.50
2012,07,07,15,10,22.60
2012,07,07,15,11,22.70
2012,07,07,15,12,22.70
2012,07,07,15,13,22.80
2012,07,07,15,14,22.80
2012,07,07,15,15,22.80
2012,07,07,15,16,22.80
2012,07,07,15,17,22.80
2012,07,07,15,18,22.70
2012,07,07,15,19,22.70
2012,07,07,15,20,22.70
2012,07,07,15,21,22.70
2012,07,07,15,22,22.70
2012,07,07,15,23,22.70
2012,07,07,15,24,22.60
2012,07,07,15,25,22.70
2012,07,07,15,26,22.70
2012,07,07,15,27,22.70
2012,07,07,15,28,22.80
2012,07,07,15,29,22.80
2012,07,07,15,30,22.90
2012,07,07,15,31,23.00
2012,07,07,15,32,23.10
2012,07,07,15,33,23.10
2012,07,07,15,34,23.00
2012,07,07,15,35,23.00
2012,07,07,15,36,22.90
2012,07,07,15,37,22.90
2012,07,07,15,38,22.80
2012,07,07,15,39,22.70
2012,07,07,15,40,22.60
2012,07,07,15,41,22.50
2012,07,07,15,42,22.50
2012,07,07,15,43,22.50
2012,07,07,15,44,22.50
2012,07,07,15,45,22.60
2012,07,07,15,46,22.60
2012,07,07,15,47,22.60
2012,07,07,15,48,22.60
2012,07,07,15,49,22.70
2012,07,07,15,50,22.80
2012,07,07,15,51,22.90
2012,07,07,15,52,22.90
2012,07,07,15,53,23.00
2012,07,07,15,54,23.10
2012,07,07,15,55,23.20
2012,07,07,15,56,23.30
2012,07,07,15,57,23.40
2012,07,07,15,58,23.50
2012,07,07,15,59,23.50
2012,07,07,16,00,23.60
2012,07,07,16,01,23.60
2012,07,07,16,02,23.60
2012,07,07,16,03,23.60
2012,07,07,16,04,23.50
2012,07,07,16,05,23.50
2012,07,07,16,06,23.50
2012,07,07,16,07,23.50
2012,07,07,16,08,23.50
2012,07,07,16,09,23.50
2012,07,07,16,10,23.50
2012,07,07,16,11,23.50
2012,07,07,16,12,23.40
2012,07,07,16,13,23.40
2012,07,07,16,14,23.40
2012,07,07,16,15,23.40
2012,07,07,16,16,23.40
2012,07,07,16,17,23.40
2012,07,07,16,18,23.40
2012,07,07,16,19,23.40
2012,07,07,16,20,23.40
2012,07,07,16,21,23.30
2012,07,07,16,22,23.40
2012,07,07,16,23,23.40
2012,07,07,16,24,23.50
2012,07,07,16,25,23.50
2012,07,07,16,26,23.60
2012,07,07,16,27,23.60
2012,07,07,16,28,23.60
2012,07,07,16,29,23.60
2012,07,07,16,30,23.70
2012,07,07,16,31,23.70
2012,07,07,16,32,23.70
2012,07,07,16,33,23.80
2012,07,07,16,34,23.80
2012,07,07,16,35,23.80
2012,07,07,16,36,23.90
2012,07,07,16,37,23.90
2012,07,07,16,38,23.90
2012,07,07,16,39,24.00
2012,07,07,16,40,24.00
2012,07,07,16,41,24.10
2012,07,07,16,42,24.10
2012,07,07,16,43,24.10
2012,07,07,16,44,24.10
2012,07,07,16,45,24.20
2012,07,07,16,46,24.20
2012,07,07,16,47,24.20
2012,07,07,16,48,24.20
2012,07,07,16,49,24.20
2012,07,07,16,50,24.20
2012,07,07,16,51,24.20
2012,07,07,16,52,24.10
2012,07,07,16,53,24.10
2012,07,07,16,54,24.10
2012,07,07,16,55,24.00
2012,07,07,16,56,24.00
2012,07,07,16,57,23.90
2012,07,07,16,58,23.90
2012,07,07,16,59,23.90
2012,07,07,17,00,23.90
2012,07,07,17,01,23.90
2012,07,07,17,02,23.90
2012,07,07,17,03,23.90
2012,07,07,17,04,23.90
2012,07,07,17,05,23.80
2012,07,07,17,06,23.80
2012,07,07,17,07,23.70
2012,07,07,17,08,23.60
2012,07,07,17,09,23.50
2012,07,07,17,10,23.40
2012,07,07,17,11,23.30
2012,07,07,17,12,23.20
2012,07,07,17,13,23.10
2012,07,07,17,14,23.10
2012,07,07,17,15,23.10
2012,07,07,17,16,23.10
2012,07,07,17,17,23.10
2012,07,07,17,18,23.20
2012,07,07,17,19,23.20